sat.trackr.live / text

‹ back to catalog

2024-094D

NORAD 59808 · 2024-094D

PAYLOAD ACTIVE UNKNOWN

§ Identity

Operator
Country
PRC
Launch date
2024-05-20
Launch site
TAISC
Launch vehicle
Mass (kg)
RCS (m²)

External: N2YO · Heavens-Above · Gunter

§ Orbital elements

Epoch: 2026-09-22T22:51:08.832384Z

Period
94.92 min
Inclination
97.3758°
Eccentricity
0.0002514
Mean motion
15.17057540 rev/d
Perigee alt
513.0 km
Apogee alt
516.5 km
Semi-major
6,892.9 km
B*
2.0401e-4
RAAN
333.9460°
Arg perigee
335.6009°
Mean anomaly
24.5105°
Rev number
12,997

§ Raw data

2024-094D1 59808U 24094D   26265.95218556  .00003972  00000+0  20401-3 0  99912 59808  97.3758 333.9460 0002514 335.6009  24.5105 15.17057540129977

JSON: /api/v1/satellites/59808 · /tle

For live sub-satellite position, see the globe view (requires WebGL).

§ Visibility from observer

Set your observer location to see the next 7 days of passes ≥ 10°. The values pass through the URL so the page stays shareable.

No JS? Fill the form by hand. The geolocation button needs JavaScript.